DW1490 Weather Reports


time (UTC)temp
C
wind
direction
speed
KPH
gust
KPH
rain 1hr
cm
rain 24hr
cm
rain mn
cm
humidity
%
barometer
mb
20260906234552 33 197 9.7 20.9 0.00 0.00 0.00 22 1017.5
20260906233525 33 171 12.9 32.2 0.00 0.00 0.00 20 1017.5
20260906232551 35 186 11.3 24.1 0.00 0.00 0.00 20 1017.6
20260906231524 35 141 3.2 4.8 0.00 0.00 0.00 19 1017.6
20260906230551 33 132 4.8 16.1 0.00 0.00 0.00 20 1017.6
20260906225544 33 170 17.7 37.0 0.00 0.00 0.00 19 1017.6
20260906224553 33 171 8.0 24.1 0.00 0.00 0.00 19 1017.6
20260906223523 34 199 24.1 48.3 0.00 0.00 0.00 19 1017.6
20260906222532 34 190 12.9 32.2 0.00 0.00 0.00 19 1017.8
20260906221523 34 167 6.4 16.1 0.00 0.00 0.00 19 1017.9
20260906220532 34 226 12.9 24.1 0.00 0.00 0.00 19 1018.0
20260906215543 34 201 14.5 29.0 0.00 0.00 0.00 19 1018.1
20260906214532 35 205 6.4 16.1 0.00 0.00 0.00 18 1018.4
20260906213525 35 213 9.7 29.0 0.00 0.00 0.00 17 1018.7
20260906212552 33 8 12.9 29.0 0.00 0.00 0.00 18 1018.9
20260906211524 35 113 4.8 16.1 0.00 0.00 0.00 18 1019.1
20260906210531 35 186 6.4 16.1 0.00 0.00 0.00 18 1019.2
20260906205524 34 221 9.7 20.9 0.00 0.00 0.00 18 1019.3
20260906204531 33 241 11.3 24.1 0.00 0.00 0.00 18 1019.5
20260906203524 33 283 14.5 29.0 0.00 0.00 0.00 18 1019.6
20260906202533 34 241 9.7 29.0 0.00 0.00 0.00 17 1019.7
20260906201523 33 193 9.7 20.9 0.00 0.00 0.00 18 1019.9
20260906200532 33 220 8.0 20.9 0.00 0.00 0.00 18 1020.0
20260906195543 33 275 11.3 20.9 0.00 0.00 0.00 18 1020.0
20260906194532 35 203 8.0 24.1 0.00 0.00 0.00 17 1020.2
20260906193523 33 210 4.8 20.9 0.00 0.00 0.00 18 1020.3
20260906192552 33 276 11.3 20.9 0.00 0.00 0.00 18 1020.4
20260906191525 33 181 8.0 20.9 0.00 0.00 0.00 18 1020.6
20260906190532 33 218 9.7 32.2 0.00 0.00 0.00 18 1020.7
20260906185524 33 54 6.4 24.1 0.00 0.00 0.00 19 1020.9
20260906184531 33 218 6.4 20.9 0.00 0.00 0.00 20 1021.0
20260906183525 33 176 6.4 20.9 0.00 0.00 0.00 19 1021.2
20260906182531 33 194 4.8 12.9 0.00 0.00 0.00 19 1021.4
20260906181524 31 353 9.7 16.1 0.00 0.00 0.00 22 1021.7
20260906180531 32 227 6.4 16.1 0.00 0.00 0.00 23 1021.8
20260906175524 31 232 6.4 16.1 0.00 0.00 0.00 26 1021.9
20260906174533 31 265 8.0 20.9 0.00 0.00 0.00 26 1022.0
20260906173524 30 288 9.7 20.9 0.00 0.00 0.00 29 1022.1
20260906172532 30 267 6.4 16.1 0.00 0.00 0.00 30 1022.2
20260906171539 29 357 6.4 16.1 0.00 0.00 0.00 31 1022.3
20260906170532 29 281 8.0 20.9 0.00 0.00 0.00 32 1022.3
20260906165525 28 330 4.8 12.9 0.00 0.00 0.00 32 1022.4
20260906164632 27 327 4.8 12.9 0.00 0.00 0.00 33 1022.6
20260906163525 27 42 4.8 12.9 0.00 0.00 0.00 34 1022.6
20260906162532 26 84 3.2 12.9 0.00 0.00 0.00 35 1022.6
20260906161525 26 51 4.8 8.0 0.00 0.00 0.00 34 1022.5
20260906160532 26 64 3.2 12.9 0.00 0.00 0.00 35 1022.5
20260906155524 25 84 4.8 12.9 0.00 0.00 0.00 36 1022.5
20260906154552 25 40 6.4 16.1 0.00 0.00 0.00 37 1022.5
20260906153600 24 352 9.7 20.9 0.00 0.00 0.00 37 1022.6
20260906152533 24 1 6.4 20.9 0.00 0.00 0.00 37 1022.5
20260906151524 23 62 8.0 20.9 0.00 0.00 0.00 38 1022.5
20260906150533 24 354 11.3 24.1 0.00 0.00 0.00 37 1022.5
20260906145524 23 26 8.0 16.1 0.00 0.00 0.00 37 1022.5
20260906144533 23 346 9.7 24.1 0.00 0.00 0.00 38 1022.4
20260906143523 22 352 14.5 32.2 0.00 0.00 0.00 39 1022.4
20260906142532 22 21 11.3 24.1 0.00 0.00 0.00 40 1022.3
20260906141545 22 17 11.3 24.1 0.00 0.00 0.00 42 1022.2
20260906140532 21 33 6.4 16.1 0.00 0.00 0.00 41 1022.2
20260906135525 22 45 4.8 16.1 0.00 0.00 0.00 40 1022.0
20260906134552 21 87 4.8 12.9 0.00 0.00 0.00 41 1022.0
20260906133524 21 57 8.0 16.1 0.00 0.00 0.00 40 1021.9
20260906132531 21 40 11.3 24.1 0.00 0.00 0.00 41 1021.9
20260906131544 21 75 11.3 24.1 0.00 0.00 0.00 41 1021.9
20260906130517 21 48 11.3 24.1 0.00 0.00 0.00 41 1021.8
20260906125524 21 356 17.7 32.2 0.00 0.00 0.00 40 1021.7
20260906124517 21 5 14.5 24.1 0.00 0.00 0.00 40 1021.7
20260906123524 21 57 9.7 20.9 0.00 0.00 0.00 40 1021.6
20260906122553 21 10 9.7 24.1 0.00 0.00 0.00 39 1021.5
20260906121524 21 17 12.9 24.1 0.00 0.00 0.00 39 1021.5
20260906120556 21 32 8.0 16.1 0.00 0.00 0.00 39 1021.5
20260906115523 21 54 8.0 16.1 0.00 0.00 0.00 40 1021.5
20260906114532 21 90 4.8 12.9 0.00 0.00 0.00 41 1021.5
20260906113525 21 96 1.6 4.8 0.00 0.00 0.00 41 1021.5
20260906112536 21 92 1.6 4.8 0.00 0.00 0.00 41 1021.5
20260906111525 21 104 3.2 4.8 0.00 0.00 0.00 40 1021.4
20260906110516 21 103 1.6 4.8 0.00 0.00 0.00 40 1021.4
20260906105525 22 105 3.2 4.8 0.00 0.00 0.00 38 1021.5
20260906104515 22 105 4.8 8.0 0.00 0.00 0.00 37 1021.5
20260906103540 22 91 4.8 8.0 0.00 0.00 0.00 37 1021.4
20260906102517 23 82 6.4 12.9 0.00 0.00 0.00 36 1021.4
20260906101525 23 94 4.8 8.0 0.00 0.00 0.00 36 1021.5
20260906100517 23 57 6.4 16.1 0.00 0.00 0.00 35 1021.4
20260906095544 23 24 6.4 16.1 0.00 0.00 0.00 35 1021.2
20260906094517 23 28 8.0 16.1 0.00 0.00 0.00 35 1021.2
20260906093544 23 39 6.4 12.9 0.00 0.00 0.00 35 1021.1
20260906092517 23 75 1.6 8.0 0.00 0.00 0.00 36 1021.0
20260906091544 23 90 3.2 8.0 0.00 0.00 0.00 38 1020.9
20260906090516 22 107 1.6 4.8 0.00 0.00 0.00 39 1020.8
20260906085525 22 102 3.2 8.0 0.00 0.00 0.00 40 1020.8
20260906084516 22 107 4.8 12.9 0.00 0.00 0.00 40 1020.9
20260906083525 22 97 6.4 12.9 0.00 0.00 0.00 39 1021.0
20260906082516 22 90 9.7 16.1 0.00 0.00 0.00 39 1021.1
20260906081541 22 116 8.0 16.1 0.00 0.00 0.00 39 1021.1
20260906080516 22 93 8.0 12.9 0.00 0.00 0.00 39 1021.2
20260906075544 22 92 8.0 12.9 0.00 0.00 0.00 39 1021.3
20260906074517 22 104 6.4 12.9 0.00 0.00 0.00 39 1021.4
20260906073524 23 97 8.0 12.9 0.00 0.00 0.00 39 1021.4
20260906072517 23 110 6.4 12.9 0.00 0.00 0.00 39 1021.4
20260906071524 23 97 8.0 16.1 0.00 0.00 0.00 39 1021.4
20260906070517 23 97 6.4 12.9 0.00 0.00 0.00 39 1021.4
20260906065524 23 106 6.4 8.0 0.00 0.00 0.00 39 1021.4
20260906064517 24 134 6.4 16.1 0.00 0.00 0.00 37 1021.4
20260906063526 23 121 8.0 12.9 0.00 0.00 0.00 37 1021.4
20260906062532 24 124 8.0 12.9 0.00 0.00 0.00 37 1021.4
20260906061525 25 132 4.8 12.9 0.00 0.00 0.00 36 1021.4
20260906060516 25 124 6.4 8.0 0.00 0.00 0.00 36 1021.2
20260906055525 24 124 3.2 8.0 0.00 0.00 0.00 36 1021.1
20260906054516 25 115 0.0 4.8 0.00 0.00 0.00 35 1021.0
20260906053525 26 101 0.0 4.8 0.00 0.00 0.00 32 1021.0
20260906052518 26 107 3.2 4.8 0.00 0.00 0.00 32 1021.0
20260906051524 26 79 3.2 8.0 0.00 0.00 0.00 31 1020.9
20260906050518 27 41 6.4 12.9 0.00 0.00 0.00 30 1020.9
20260906045544 27 32 6.4 16.1 0.00 0.00 0.00 30 1020.9
20260906044517 27 25 11.3 24.1 0.00 0.00 0.00 29 1021.0
20260906043524 26 76 4.8 8.0 0.00 0.00 0.00 31 1021.0
20260906042517 26 75 4.8 8.0 0.00 0.00 0.00 31 1020.9
20260906041546 27 96 3.2 8.0 0.00 0.00 0.00 31 1020.9
20260906040516 27 67 6.4 16.1 0.00 0.00 0.00 30 1021.0
20260906035546 26 80 4.8 12.9 0.00 0.00 0.00 31 1021.0
20260906034537 26 72 8.0 16.1 0.00 0.00 0.00 31 1020.9
20260906033545 27 90 6.4 12.9 0.00 0.00 0.00 31 1020.9
20260906032516 27 16 9.7 29.0 0.00 0.00 0.00 30 1020.7
20260906031525 27 44 4.8 20.9 0.00 0.00 0.00 31 1020.6
20260906030536 27 28 6.4 12.9 0.00 0.00 0.00 30 1020.5
20260906025525 27 42 6.4 12.9 0.00 0.00 0.00 31 1020.3
20260906024518 27 44 3.2 12.9 0.00 0.00 0.00 33 1020.2
20260906023525 27 112 1.6 4.8 0.00 0.00 0.00 34 1020.1
20260906022517 27 106 0.0 4.8 0.00 0.00 0.00 33 1020.0
20260906021524 28 0.0 0.0 0.00 0.00 0.00 32 1019.9
20260906020517 28 58 3.2 8.0 0.00 0.00 0.00 31 1019.8
20260906015526 29 59 4.8 8.0 0.00 0.00 0.00 30 1019.6
20260906014517 29 57 4.8 12.9 0.00 0.00 0.00 30 1019.6
20260906013526 30 351 8.0 16.1 0.00 0.00 0.00 29 1019.6
20260906012516 30 347 6.4 16.1 0.00 0.00 0.00 29 1019.6
20260906011526 30 325 6.4 24.1 0.00 0.00 0.00 29 1019.6
20260906010516 30 27 6.4 12.9 0.00 0.00 0.00 28 1019.5
20260906005525 30 249 1.6 8.0 0.00 0.00 0.00 28 1019.5
20260906004558 31 266 9.7 24.1 0.00 0.00 0.00 28 1019.6
20260906003525 31 264 9.7 24.1 0.00 0.00 0.00 28 1019.6
20260906002518 31 355 4.8 12.9 0.00 0.00 0.00 28 1019.6
20260906001525 31 173 4.8 16.1 0.00 0.00 0.00 28 1019.5
20260906000538 31 270 11.3 29.0 0.00 0.00 0.00 27 1019.5
20260905235544 32 134 4.8 16.1 0.00 0.00 0.00 26 1019.4